This is the latest recevied weather packets stored in our database for station/object LA1HSA-13. If no packets are shown the sender has not sent any weather packets the latest 10 day(s).
| Time | Temp. | Humidity | Pressure | Rain* | Wind** | Luminosity | Snow |
|---|---|---|---|---|---|---|---|
| 1777801204 | 7.22° C | 72% | 1011.6 hPa | 0 mm | - | - | - |
| 1777800603 | 6.67° C | 73% | 1011.8 hPa | 0 mm | - | - | - |
| 1777800003 | 6.67° C | 72% | 1011.9 hPa | 0 mm | - | - | - |
| 1777799403 | 6.67° C | 71% | 1011.8 hPa | 0 mm | - | - | - |
| 1777798803 | 6.67° C | 72% | 1011.9 hPa | 0 mm | - | - | - |
| 1777798204 | 6.11° C | 71% | 1011.7 hPa | 0 mm | - | - | - |
| 1777797603 | 6.67° C | 71% | 1011.7 hPa | 0 mm | - | - | - |
| 1777797003 | 6.67° C | 70% | 1011.3 hPa | 0 mm | - | - | - |
| 1777796403 | 6.67° C | 70% | 1011.6 hPa | 0 mm | - | - | - |
| 1777795803 | 6.67° C | 72% | 1011.6 hPa | 0 mm | - | - | - |
| 1777795204 | 6.67° C | 71% | 1011.5 hPa | 0 mm | - | - | - |
| 1777794003 | 6.11° C | 71% | 1011.4 hPa | 0 mm | - | - | - |
| 1777793403 | 6.11° C | 71% | 1011.5 hPa | 0 mm | - | - | - |
| 1777792803 | 6.11° C | 71% | 1011.4 hPa | 0 mm | - | - | - |
| 1777792203 | 6.11° C | 71% | 1011.3 hPa | 0 mm | - | - | - |
| 1777791603 | 6.11° C | 72% | 1011.1 hPa | 0 mm | - | - | - |
| 1777791003 | 6.11° C | 72% | 1011.2 hPa | 0 mm | - | - | - |
| 1777790403 | 6.11° C | 72% | 1011.2 hPa | 0 mm | - | - | - |
| 1777789803 | 6.11° C | 72% | 1010.9 hPa | 0 mm | - | - | - |
| 1777789203 | 6.11° C | 73% | 1011 hPa | 0 mm | - | - | - |
| 1777788603 | 6.11° C | 73% | 1011 hPa | 0 mm | - | - | - |
| 1777788003 | 6.11° C | 73% | 1011.1 hPa | 0 mm | - | - | - |
| 1777787403 | 5.56° C | 73% | 1010.7 hPa | 0 mm | - | - | - |
| 1777786803 | 5.56° C | 73% | 1010.7 hPa | 0 mm | - | - | - |
| 1777786203 | 6.11° C | 73% | 1010.5 hPa | 0 mm | - | - | - |
* Rain latest hour (hover to see other rain measurements)
** Current wind speed in m/s (hover to see current wind gust speed)